Powrót do katalogu

STARLINK-32025

AktywnyŁącznośćVLEO
NORAD 60138·PAYLOAD·🇺🇸 United States

Wystrzelony Jun 27, 2024 z Cape Canaveral Space Force Station

Loading…

Następne Przeloty (najbliższe 24 godziny)

TLE

ŚwieżeSource: CelesTrak SupGP

Epoka: Sep 14, 2026, 14:25 UTC

1 60138C 24120D   26257.60118056  .00063157  00000+0  18664-2 0  2571
2 60138  53.1567 158.9676 0001261  92.7549  81.2506 15.34351995    13

Śledź STARLINK-32025 w czasie rzeczywistym z AllMySat

Download on the App Store